Theta_e
325 321 325 320 307 306 300 299 303 302 303 306 308 306 306 308 303 303 334 341 342 343 344 345 347 350 350 349 349 349 347 343 341 340 338 337 336 335 335 335 336 339 340 344 344 342 339 337 334
321 318 321 315 303 298 299 302 301 304 308 310 310 311 310 310 320 327 334 341 343 343 345 345 346 351 350 349 349 348 347 343 342 341 340 338 335 333 333 333 334 337 339 341 341 338 335 333 332
318 313 316 310 304 297 299 302 304 307 310 308 308 312 312 313 323 331 335 342 343 343 344 345 346 350 350 349 349 348 347 344 342 342 341 340 338 333 331 331 333 334 336 337 337 334 331 331 331
318 316 310 304 299 300 301 303 304 307 305 305 309 308 315 320 325 329 341 342 342 343 345 344 347 349 348 349 348 348 347 343 343 342 341 340 338 335 330 329 331 331 332 334 332 329 327 327 329
317 313 305 302 300 300 302 304 308 305 304 307 309 306 312 320 326 332 341 342 341 343 344 345 345 346 347 350 348 347 347 345 343 342 341 339 337 335 333 329 328 328 329 329 327 325 324 325 327
312 311 302 299 299 300 302 304 308 305 304 306 305 308 312 321 326 334 342 342 343 343 344 344 340 342 344 347 346 346 345 346 344 342 340 339 337 336 334 332 330 328 327 326 324 323 322 324 325
309 307 301 300 299 299 302 305 306 305 304 305 309 306 311 318 329 333 341 343 343 344 344 345 346 342 338 341 343 344 344 344 344 343 341 340 338 337 335 334 331 329 327 325 323 321 321 323 324
309 308 299 300 298 299 303 304 304 305 304 307 311 305 306 319 329 333 339 341 342 344 343 343 344 343 343 344 335 338 340 341 341 340 337 335 334 334 333 330 331 329 326 325 323 321 321 322 323
304 303 299 299 298 301 302 302 301 304 304 306 308 306 310 323 327 331 333 334 336 338 343 343 343 344 344 344 338 334 335 336 335 335 330 330 335 334 333 328 329 327 325 323 322 320 320 320 319
305 302 300 302 303 302 302 303 303 303 303 304 305 306 308 322 326 329 330 331 332 334 337 342 343 343 344 342 344 344 343 343 342 341 339 337 336 335 332 326 325 325 323 321 319 316 314 318 320
300 300 299 301 301 302 302 301 304 303 301 306 306 307 308 320 325 328 330 331 332 334 335 336 340 340 342 342 342 344 345 344 344 341 340 338 336 334 332 328 325 324 320 319 317 316 315 316 317
299 299 300 302 303 302 301 302 301 303 306 306 308 308 309 317 321 326 329 331 333 332 333 333 334 334 336 333 340 342 340 340 343 341 339 336 335 334 331 329 325 322 322 321 319 316 314 313 312
299 300 300 302 302 301 300 301 302 302 307 305 304 304 307 312 320 324 329 332 333 329 330 329 329 330 330 333 333 336 342 340 339 338 334 334 333 331 329 327 324 321 320 320 316 311 309 308 307
301 301 301 302 302 302 300 302 301 305 306 304 304 306 307 309 316 322 324 327 329 328 328 327 324 327 327 329 332 338 338 341 340 341 337 335 334 331 329 325 321 320 319 318 315 307 303 303 303
300 299 300 301 301 301 301 299 299 306 302 304 304 306 306 307 311 316 319 323 326 325 325 322 321 322 323 326 329 334 336 337 339 334 336 335 333 330 327 326 320 317 315 312 308 304 300 299 299
299 299 296 299 299 300 300 297 302 301 302 304 306 306 306 306 307 311 316 319 321 321 318 319 315 317 320 323 326 331 333 332 334 334 331 331 330 328 326 325 319 313 313 309 305 301 299 300 298
297 294 294 296 299 299 299 298 302 300 300 302 304 305 306 306 306 308 311 314 314 314 313 313 314 315 317 320 322 325 327 330 330 329 327 329 326 325 323 320 315 313 314 310 305 301 300 298 295
293 293 293 295 297 297 297 297 302 303 300 303 305 306 305 305 306 308 308 310 312 312 311 312 313 315 317 319 320 320 318 321 325 325 322 321 323 323 319 314 310 309 312 307 303 300 301 297 293
295 294 293 296 296 296 297 298 300 303 303 302 303 305 306 306 309 309 308 308 308 309 310 310 311 313 316 316 315 315 311 311 313 315 314 315 315 315 313 310 305 304 306 308 303 300 297 294 293
295 294 294 296 295 295 297 296 300 302 302 304 304 305 306 307 308 307 306 306 306 307 308 309 310 312 314 315 316 315 314 308 312 309 308 308 309 310 310 306 306 303 306 305 302 300 296 293 294
294 293 294 293 294 295 294 294 298 301 301 302 303 305 306 306 307 308 306 305 306 306 307 308 309 311 313 314 314 307 302 301 302 302 302 302 305 303 303 303 301 303 305 305 304 301 298 292 294
291 296 294 293 292 289 293 287 295 299 299 300 303 305 305 306 306 307 307 304 305 306 308 308 309 310 312 313 309 309 306 305 306 305 300 299 302 301 299 296 297 301 306 306 305 302 300 298 294
293 295 294 293 292 291 291 288 293 295 295 299 302 304 306 307 307 306 306 305 306 306 307 308 308 309 310 312 311 311 311 312 306 303 298 297 297 297 295 294 296 299 302 306 304 301 300 298 298
295 294 293 293 292 286 291 289 291 295 296 299 301 303 305 306 305 305 305 304 304 305 305 307 307 307 309 309 310 310 310 311 307 301 297 295 296 293 292 290 293 296 299 303 302 300 298 299 298
294 293 286 285 284 284 289 288 291 296 298 299 301 303 303 303 304 304 303 302 301 301 303 304 305 305 307 307 308 309 310 308 307 306 302 297 295 295 290 289 289 292 295 300 300 299 297 296 295
292 293 287 282 282 286 285 285 292 298 299 299 300 301 302 301 303 304 305 303 301 300 302 303 303 304 306 306 307 308 310 307 307 305 305 301 299 296 292 288 288 290 292 296 296 295 294 292 292
291 288 295 288 281 283 288 292 296 297 296 298 299 301 302 303 303 303 304 303 301 301 301 303 303 303 305 304 306 306 306 305 304 301 302 300 297 292 288 287 287 287 288 292 291 291 288 290 289
293 296 287 288 282 280 286 288 289 295 297 300 298 300 302 303 303 304 303 302 300 301 302 302 303 303 304 303 304 304 302 303 299 298 297 296 295 290 286 286 285 286 286 289 289 289 288 288 287
290 290 290 290 288 283 282 287 297 297 298 297 299 299 302 303 302 303 302 299 299 300 301 301 302 302 302 302 303 302 302 299 298 296 297 294 291 287 285 284 285 284 284 288 288 287 287 286 285
294 292 292 286 284 286 286 287 295 298 299 298 299 299 301 301 301 300 300 298 298 298 299 300 301 301 302 301 301 300 300 298 296 295 295 292 289 286 284 284 283 284 284 286 287 285 285 285 284
Wind_Speed
6 3 1 3 5 3 2 4 1 7 6 2 2 3 1 4 3 4 7 8 10 13 12 13 9 9 10 10 12 13 14 15 15 16 16 16 16 16 16 16 15 16 16 18 20 20 19 20 20
4 2 1 1 5 4 4 4 7 6 3 7 5 3 3 4 3 8 10 9 14 12 12 13 10 10 10 11 11 13 13 15 16 15 16 16 16 16 17 17 16 17 17 18 20 19 19 19 19
0 3 3 1 2 5 0 6 7 5 8 4 4 1 0 4 5 13 5 14 13 12 11 11 11 12 11 11 12 13 14 14 15 15 15 16 16 17 17 17 17 17 17 18 19 20 19 19 19
2 3 3 4 5 1 2 6 6 11 4 4 2 3 2 2 9 3 9 14 13 12 11 12 11 13 13 12 13 14 15 15 15 15 15 16 17 17 17 17 17 18 18 19 19 19 19 19 18
1 1 3 1 3 2 2 3 11 10 5 6 5 4 3 4 2 5 10 13 14 13 11 13 10 12 11 11 13 14 15 15 15 15 16 16 17 17 18 17 17 18 18 19 19 19 20 20 19
2 1 4 6 3 2 2 5 10 6 3 5 4 7 5 4 6 8 11 14 13 13 12 12 10 10 11 11 12 13 13 14 14 15 15 17 17 17 17 17 18 18 19 19 19 19 20 20 20
1 3 4 1 2 3 4 8 10 8 5 5 1 6 3 8 8 8 11 11 11 12 12 12 12 11 9 9 9 11 13 14 14 14 14 14 15 15 16 16 18 18 19 19 19 19 19 20 20
3 1 3 3 5 4 6 10 3 8 4 2 2 5 4 13 10 9 10 11 11 11 12 12 12 12 12 11 9 9 11 11 12 12 11 11 12 13 13 13 16 19 19 19 19 19 20 20 19
1 4 6 4 6 3 8 9 3 1 3 4 5 2 4 12 12 12 11 11 9 9 12 12 12 11 11 10 10 8 8 10 10 11 10 12 9 11 10 12 15 18 19 19 19 19 19 19 19
3 4 5 0 3 3 8 9 8 6 7 6 5 6 4 11 13 16 17 15 14 13 12 12 13 12 11 8 11 11 11 10 11 11 13 7 9 8 10 10 12 16 18 18 18 17 12 9 8
3 5 2 3 1 3 6 6 6 8 9 11 13 11 11 15 15 17 18 18 18 15 11 12 11 9 9 9 5 4 5 7 7 12 11 9 7 9 8 8 7 9 12 9 10 9 7 9 7
3 1 2 4 2 2 4 3 6 11 9 2 7 5 15 18 18 19 19 19 18 16 14 12 11 8 7 3 5 6 5 5 5 9 11 7 5 6 6 7 6 6 4 10 8 6 9 10 11
2 4 3 2 3 3 1 7 8 12 13 4 3 8 14 16 18 17 16 16 15 16 14 13 11 10 8 8 5 4 8 6 7 8 9 8 8 7 7 6 6 5 5 7 10 9 8 10 10
2 2 1 2 3 2 4 4 3 5 7 11 9 11 12 16 18 15 16 17 17 15 15 13 12 11 10 9 9 7 6 8 7 7 10 12 8 9 7 7 6 6 6 8 10 9 8 7 9
2 2 3 5 2 2 2 8 16 9 2 9 13 12 12 14 14 20 19 19 17 14 14 14 13 11 11 11 10 8 7 6 7 5 10 14 11 10 10 9 7 6 5 9 10 10 8 7 9
1 1 4 3 3 2 5 12 4 2 8 14 14 12 12 15 18 17 17 17 17 15 16 14 11 12 12 11 10 8 8 7 7 6 6 10 11 12 10 9 9 7 9 7 9 10 8 9 8
1 4 6 3 4 1 8 8 2 1 5 12 13 14 14 14 15 17 18 17 17 16 15 16 15 14 13 11 9 9 10 8 7 6 6 9 9 11 10 9 8 11 10 9 9 9 8 10 9
6 6 4 6 3 4 9 17 17 11 8 12 12 13 13 16 20 17 19 18 17 16 16 15 13 14 13 9 9 7 5 6 7 8 7 8 8 12 10 8 9 10 11 10 9 11 10 10 10
3 2 5 3 1 4 12 19 18 17 16 18 18 19 18 20 17 14 15 17 17 16 17 18 17 16 12 10 10 8 6 5 5 5 7 8 7 9 10 9 9 8 9 13 12 12 15 11 12
5 8 12 7 2 5 12 23 19 19 22 19 21 21 21 21 17 15 15 16 19 19 19 18 19 18 15 11 10 7 8 3 4 5 6 6 8 10 10 12 13 11 8 12 13 16 11 9 11
9 12 9 9 1 7 11 17 15 10 15 17 21 22 23 24 23 17 15 18 17 20 21 20 20 18 16 15 9 6 5 3 4 6 5 5 8 7 9 11 10 12 11 12 15 16 15 11 10
14 12 8 6 5 7 2 11 18 17 17 15 18 17 20 20 19 16 14 16 18 20 17 18 18 19 17 18 14 16 9 8 6 6 5 6 8 8 8 8 9 10 9 12 13 13 13 11 12
2 5 6 2 5 5 9 8 8 4 13 16 20 19 19 17 13 13 15 16 18 15 17 17 18 19 18 18 17 14 14 9 7 6 8 7 6 7 8 9 11 10 8 13 14 15 14 10 10
12 7 5 3 1 10 9 11 9 11 8 5 6 9 10 9 8 9 7 6 9 9 13 15 18 19 19 19 20 20 18 15 11 10 8 7 6 6 6 7 8 8 8 13 13 13 14 11 9
4 9 4 5 6 12 4 7 14 7 11 10 12 17 5 2 5 5 5 7 9 11 13 13 17 19 19 19 19 19 19 17 17 15 12 12 9 8 9 10 9 8 9 12 12 13 11 10 8
12 11 8 8 6 8 2 13 8 10 10 14 14 18 11 9 7 8 7 6 8 10 12 14 16 17 18 18 19 16 17 11 12 13 11 11 11 10 12 11 10 9 9 12 12 9 8 8 7
8 12 9 7 1 4 10 20 21 15 17 16 18 14 14 10 10 11 9 9 8 9 12 14 15 15 17 18 17 18 16 17 14 12 12 9 8 7 10 10 9 8 9 12 12 8 9 9 8
10 7 6 5 7 11 14 16 17 5 11 10 7 10 11 11 10 9 7 5 5 8 10 12 13 14 15 17 17 15 16 15 10 10 13 12 10 12 11 11 10 10 9 12 12 10 11 11 8
7 12 5 3 6 7 9 12 10 14 9 7 7 6 7 7 5 6 5 3 5 6 9 11 13 14 14 16 17 17 15 14 12 12 14 13 13 12 12 12 12 12 12 14 13 12 13 13 11
10 19 22 9 8 6 8 17 3 5 3 6 8 6 4 5 4 2 4 4 6 8 10 11 12 14 14 15 16 16 16 16 15 13 15 14 14 12 13 12 11 11 12 14 14 14 12 13 13
Wind_Direction
299 321 197 212 237 259 163 159 8 153 177 119 122 226 301 36 348 44 132 147 154 156 169 178 188 151 134 132 128 120 110 103 100 96 93 90 88 85 85 84 84 86 86 83 82 81 76 71 69
333 294 202 123 256 263 144 146 198 163 84 127 134 147 185 94 102 126 144 160 157 154 157 166 158 140 143 137 131 123 114 110 105 99 96 92 89 90 87 88 88 87 88 87 84 81 78 78 77
182 341 265 353 277 276 273 183 151 118 127 164 151 301 18 110 126 144 104 155 157 158 159 149 151 147 146 138 140 129 120 116 109 105 101 97 94 91 91 90 91 90 89 90 86 85 83 81 80
229 172 124 257 273 314 332 165 146 144 190 205 218 171 170 31 143 133 152 161 164 159 160 143 154 154 155 142 146 139 130 125 117 111 105 98 93 92 92 92 93 92 92 90 89 88 89 88 86
18 203 213 221 256 295 239 171 172 167 153 164 182 157 149 161 153 156 165 171 166 161 165 163 160 153 148 145 147 148 137 130 126 120 111 103 100 96 94 96 95 95 95 95 94 92 90 89 87
168 295 230 249 220 198 226 175 175 193 162 141 199 161 144 134 180 155 166 171 169 164 164 162 162 156 154 152 152 154 144 138 132 127 122 112 108 105 102 99 96 95 95 94 94 92 90 90 85
223 226 244 265 249 229 182 164 191 191 178 193 136 183 124 186 171 161 169 168 178 168 170 170 172 166 159 159 155 150 151 148 141 137 129 118 112 109 105 102 99 98 96 95 95 94 91 88 83
107 267 175 198 216 224 156 173 202 208 189 100 229 206 165 181 162 164 169 178 181 181 183 177 175 175 172 167 163 152 150 150 147 137 126 114 102 100 99 103 103 103 101 100 98 92 90 89 83
151 223 235 222 193 195 152 194 150 82 191 204 196 269 66 145 154 167 170 179 183 187 192 184 179 182 180 175 165 156 151 151 143 134 129 145 130 125 138 98 114 111 107 103 101 98 94 90 80
213 232 228 143 232 238 178 204 171 191 191 220 218 189 148 168 175 180 186 187 192 187 185 189 187 188 189 183 175 179 167 173 175 167 163 158 148 133 119 107 108 111 107 106 104 101 101 102 98
138 246 151 175 239 278 195 215 178 210 211 217 216 191 176 183 191 194 196 196 195 188 181 189 189 189 194 183 173 177 177 181 183 176 172 167 148 144 140 132 127 125 125 117 116 114 94 97 97
210 143 176 127 176 212 218 160 205 218 224 104 217 182 174 190 198 201 201 199 195 191 190 185 191 189 190 182 201 184 178 184 183 182 161 154 148 158 157 160 144 143 136 126 115 103 101 95 92
205 158 175 128 170 238 195 236 244 239 232 187 145 183 197 201 207 208 209 205 199 198 191 190 188 194 192 204 195 205 198 194 192 164 171 166 164 159 152 148 149 142 144 129 118 109 104 102 97
75 181 171 185 184 228 256 259 245 238 234 216 214 215 210 212 211 205 208 207 204 200 196 190 197 199 197 204 208 210 204 208 198 183 181 181 174 160 158 149 144 146 139 137 124 119 113 110 106
90 239 274 217 166 229 259 244 239 242 184 229 227 230 225 220 212 213 211 210 203 202 196 197 199 201 206 209 210 209 213 215 207 179 186 186 180 167 155 160 147 140 120 123 115 109 110 113 110
165 224 234 126 180 133 209 262 254 230 232 244 239 236 233 229 222 221 218 213 209 204 201 199 197 201 206 212 212 209 204 199 206 200 176 178 169 165 157 162 153 141 142 139 132 128 130 124 125
203 239 224 271 185 205 222 274 270 191 228 258 252 249 242 244 235 227 217 214 209 207 202 201 199 202 202 205 209 205 212 209 193 194 196 177 168 160 156 153 149 152 150 149 143 131 137 135 128
203 216 220 250 130 221 240 253 266 254 243 258 265 262 248 245 238 229 216 213 209 206 205 203 199 202 200 197 198 190 195 208 200 201 196 169 170 165 151 145 151 147 149 146 147 135 144 141 134
120 210 249 230 137 262 254 266 266 271 268 259 258 256 253 249 245 230 218 208 206 205 203 204 200 199 192 191 191 196 194 189 197 202 188 172 164 158 153 149 151 157 158 157 151 137 145 147 142
214 253 256 279 193 234 278 277 275 264 259 255 258 255 251 252 244 230 216 209 206 204 205 204 205 198 197 196 195 201 183 178 191 190 190 173 170 169 163 160 172 155 162 159 152 152 152 155 174
224 235 247 266 328 234 291 269 260 256 257 261 257 255 258 253 253 241 215 212 210 210 204 205 203 201 200 198 181 154 107 102 173 197 183 178 176 160 163 164 161 164 171 170 166 168 170 162 184
241 212 235 255 283 272 276 289 280 275 263 246 257 248 250 248 250 250 231 214 211 215 208 205 202 201 200 196 191 193 190 185 203 180 163 180 181 163 166 150 163 170 172 180 176 175 177 168 174
236 131 179 176 242 305 204 256 257 264 268 255 249 253 255 257 253 241 230 226 218 207 202 204 202 202 197 196 203 198 197 202 181 167 156 176 180 171 168 169 165 177 177 182 178 177 185 187 181
139 96 77 85 248 262 238 233 257 251 246 276 259 259 261 267 255 249 258 246 233 214 204 199 201 206 202 199 202 202 198 195 187 169 172 176 173 176 166 165 176 177 179 182 184 181 183 185 190
213 170 203 221 198 250 79 239 248 263 259 242 274 288 295 243 248 243 221 207 206 201 207 210 202 206 205 205 207 206 204 195 198 182 184 172 179 190 185 174 173 174 178 187 182 181 181 183 187
197 201 210 228 212 262 110 240 258 234 277 284 273 267 276 262 239 245 227 213 207 200 199 202 210 209 205 206 209 207 208 201 204 195 186 192 193 184 176 177 179 174 166 177 176 174 171 167 169
175 216 253 269 106 292 249 263 271 238 256 239 256 266 276 265 238 248 239 218 198 197 204 205 206 212 207 209 206 203 199 202 198 190 196 195 187 173 169 172 168 164 162 172 165 161 156 157 153
215 149 187 213 226 234 251 260 257 280 294 271 252 267 283 266 249 244 244 232 205 205 197 203 209 211 209 211 208 203 201 198 188 178 191 188 181 174 165 166 161 162 162 167 164 156 154 149 146
182 214 219 242 220 244 259 253 259 255 262 281 303 305 305 310 258 221 222 193 212 213 218 205 205 207 206 209 208 204 197 189 185 187 194 188 181 170 169 169 163 163 162 168 165 158 157 152 148
240 226 209 213 207 248 272 264 152 257 247 305 321 297 285 311 294 293 261 227 214 217 216 215 212 207 208 204 205 206 200 193 188 189 192 184 182 171 169 165 164 166 163 168 166 157 160 158 159